TimeCDT,TemperatureF,Dew PointF,Humidity,Sea Level PressureIn,VisibilityMPH,Wind Direction,Wind SpeedMPH,Gust SpeedMPH,PrecipitationIn,Events,Conditions,WindDirDegrees,DateUTC
12:53 AM,39.9,28.9,65,30.06,10.0,WNW,12.7,-,N/A,,Mostly Cloudy,300,2013-10-06 05:53:00
1:53 AM,41.0,30.0,65,30.07,10.0,NW,12.7,-,N/A,,Overcast,310,2013-10-06 06:53:00
2:53 AM,39.0,30.0,70,30.08,10.0,WNW,11.5,-,N/A,,Partly Cloudy,290,2013-10-06 07:53:00
3:53 AM,37.9,28.9,70,30.08,10.0,WNW,13.8,-,N/A,,Clear,300,2013-10-06 08:53:00
4:53 AM,34.0,28.9,82,30.10,10.0,NW,9.2,-,N/A,,Clear,310,2013-10-06 09:53:00
5:53 AM,36.0,28.9,76,30.09,10.0,WNW,12.7,-,N/A,,Clear,300,2013-10-06 10:53:00
6:53 AM,35.1,28.9,78,30.10,10.0,WNW,10.4,-,N/A,,Clear,290,2013-10-06 11:53:00
7:53 AM,35.1,28.0,76,30.10,10.0,WNW,13.8,-,N/A,,Clear,300,2013-10-06 12:53:00
8:53 AM,39.0,30.0,70,30.11,10.0,WNW,15.0,-,N/A,,Clear,290,2013-10-06 13:53:00
9:53 AM,46.0,33.1,61,30.10,10.0,NW,15.0,-,N/A,,Clear,310,2013-10-06 14:53:00
10:53 AM,54.0,33.1,45,30.10,10.0,NW,18.4,28.8,N/A,,Clear,320,2013-10-06 15:53:00
11:53 AM,59.0,33.1,38,30.09,10.0,NNW,24.2,32.2,N/A,,Clear,330,2013-10-06 16:53:00
12:53 PM,61.0,34.0,36,30.09,10.0,NNW,15.0,27.6,N/A,,Clear,340,2013-10-06 17:53:00
1:53 PM,63.0,33.1,33,30.08,10.0,NNW,20.7,29.9,N/A,,Clear,340,2013-10-06 18:53:00
2:53 PM,64.0,34.0,33,30.06,10.0,NNW,19.6,29.9,N/A,,Clear,330,2013-10-06 19:53:00
3:53 PM,64.0,32.0,30,30.06,10.0,NNW,23.0,32.2,N/A,,Clear,330,2013-10-06 20:53:00
4:53 PM,66.0,32.0,28,30.07,10.0,NNW,17.3,27.6,N/A,,Clear,330,2013-10-06 21:53:00
5:53 PM,64.0,30.0,28,30.09,10.0,NNW,17.3,26.5,N/A,,Clear,340,2013-10-06 22:53:00
6:53 PM,60.1,28.0,30,30.11,10.0,NNW,9.2,-,N/A,,Clear,340,2013-10-06 23:53:00
7:53 PM,45.0,32.0,60,30.17,10.0,NNW,6.9,-,N/A,,Clear,330,2013-10-07 00:53:00
8:53 PM,43.0,30.9,62,30.17,10.0,NW,8.1,-,N/A,,Clear,320,2013-10-07 01:53:00
9:53 PM,39.9,30.0,68,30.17,10.0,WNW,5.8,-,N/A,,Clear,290,2013-10-07 02:53:00
10:53 PM,37.0,30.0,76,30.17,10.0,NNW,5.8,-,N/A,,Clear,330,2013-10-07 03:53:00
11:53 PM,36.0,30.0,79,30.15,10.0,West,5.8,-,N/A,,Clear,270,2013-10-07 04:53:00